Location: *
(24.1434°N, 56.8729°E)
Time: 05:37:26
(UTC+00:00)

SL-24 R/B - Pass Details

Date: 09 April 2020
Orbit: 505 x 1003 km, 97.4° (Epoch: 05 June)

Event Time Altitude Azimuth Distance (km) Brightness Sun altitude
Rises 15:32:28 0° 22° (NNE) 2,666 7.3 -14.3°
Reaches altitude 10° 15:34:44 10° 32° (NNE) 1,742 6.2 -14.8°
Maximum altitude 15:38:08 34° 99° (E) 838 4.2 -15.6°
Enters shadow 15:39:18 27° 137° (SE) 986 4.6 -15.8°
